Regional Weather Roundup
Issued by NWS

Home | Current Version | Previous Version | Text Only | Print | Product List | Glossary Off
Versions: 1 2 3 4 5 6 7 8 9 10 11 12 13 14 15 16 17 18 19 20 21 22 23 24 25 26 27

000
ASUS45 KBOI 211810
RWRID

IDAHO REGIONAL WEATHER ROUNDUP
NATIONAL WEATHER SERVICE BOISE ID
1100 AM MST WED FEB 21 2018

NOTE: "FAIR" INDICATES FEW OR NO CLOUDS BELOW 12000 FEET
WITH NO SIGNIFICANT WEATHER AND/OR OBSTRUCTIONS TO VISIBILITY

IDZ012-014-211900-
SOUTHWEST IDAHO


CITY           SKY/WX    TMP DP  RH WIND       PRES   REMARKS
BOISE          PTSUNNY   31   6  35 E6        30.17R WCI  25
CALDWELL       CLOUDY    28  10  46 MISG      30.21S
MOUNTAIN HOME  FAIR      29   7  39 SE20      30.16F WCI  16
$$

IDZ016-017-211900-
SOUTHCENTRAL IDAHO


CITY           SKY/WX    TMP DP  RH WIND       PRES   REMARKS
BURLEY         FAIR      21   8  57 E5        30.12F WCI  15
JEROME         FAIR      26   8  46 E12       30.14S WCI  16
TWIN FALLS     FAIR      22  11  62 CALM      30.13S
$$

IDZ019>023-211900-
SOUTHEAST IDAHO


CITY           SKY/WX    TMP DP  RH WIND       PRES   REMARKS
IDAHO FALLS    FAIR      23   7  50 S14       30.13F WCI  11
POCATELLO      FAIR      25  11  55 CALM      30.14F
REXBURG        FAIR      21   7  54 SW12      30.11F WCI   9
$$

IDZ006-010-011-018-031-032-211900-
CENTRAL IDAHO MOUNTAINS


CITY           SKY/WX    TMP DP  RH WIND       PRES   REMARKS
MCCALL         LGT SNOW  15   8  73 CALM      30.04S
HAILEY         MOSUNNY   16   0  48 NW12      30.10F WCI   3
STANLEY          N/A      3  -5  69 N6        29.99F WCI  -8
SALMON         CLOUDY    20  10  65 VRB5      30.14F WCI  13
CHALLIS        CLOUDY    17  -1  45 N3        30.06F
$$

IDZ002-004-006-007-026-211900-
NORTHERN IDAHO


CITY           SKY/WX    TMP DP  RH WIND       PRES   REMARKS
LEWISTON       CLOUDY    25  15  66 CALM      30.29F
LOWELL           N/A     24  11  57 VRB3      30.33S
COEUR D`ALENE  FAIR      19  12  74 CALM      30.25S
MULLAN PASS    FAIR       5   3  91 SW6       29.92S WCI  -6
$$




USA.gov is the U.S. government's official web portal to all federal, state and local government web resources and services.